owner,sensor,date,latitude,longitude,vertical_datum,direction_of_sea_water_velocity,sea_water_speed,upward_sea_water_velocity,qcFlag 
TABS,ioos:station:wmo:42046:1,1999-05-01T00:00:00Z,27.8903,-94.0367,2.0,67.89060336,31.08584887,-99999.0,'11111222,11111222,99999999' 
TABS,ioos:station:wmo:42046:1,1999-05-01T00:30:00Z,27.8903,-94.0367,2.0,76.60753356,34.53925303,-99999.0,'11111222,11111222,99999999' 
TABS,ioos:station:wmo:42046:1,1999-05-01T01:00:00Z,27.8903,-94.0367,2.0,75.47362944,25.51568145,-99999.0,'11111222,11111222,99999999' 
TABS,ioos:station:wmo:42046:1,1999-05-01T01:30:00Z,27.8903,-94.0367,2.0,85.06398743,22.08189303,-99999.0,'11111222,11111222,99999999' 
TABS,ioos:station:wmo:42046:1,1999-05-01T02:00:00Z,27.8903,-94.0367,2.0,74.79199637,32.02139909,-99999.0,'11111222,11111222,99999999' 
TABS,ioos:station:wmo:42046:1,1999-05-01T02:30:00Z,27.8903,-94.0367,2.0,68.39133913,16.56411785,-99999.0,'11111222,11111222,99999999' 
TABS,ioos:station:wmo:42046:1,1999-05-01T03:00:00Z,27.8903,-94.0367,2.0,93.77227479,18.23951754,-99999.0,'11111222,11111222,99999999' 
TABS,ioos:station:wmo:42046:1,1999-05-01T03:30:00Z,27.8903,-94.0367,2.0,88.5855801,16.20493752,-99999.0,'11111222,11111222,99999999' 
TABS,ioos:station:wmo:42046:1,1999-05-01T04:00:00Z,27.8903,-94.0367,2.0,75.54514386,23.23553313,-99999.0,'11111222,11111222,99999999' 
TABS,ioos:station:wmo:42046:1,1999-05-01T04:30:00Z,27.8903,-94.0367,2.0,75.32364118,8.683317338,-99999.0,'11133222,11111222,99999999' 
TABS,ioos:station:wmo:42046:1,1999-05-01T05:00:00Z,27.8903,-94.0367,2.0,76.34961279,7.203471385,-99999.0,'11133222,11111222,99999999' 
TABS,ioos:station:wmo:42046:1,1999-05-01T05:30:00Z,27.8903,-94.0367,2.0,69.86374366,9.585927185,-99999.0,'11133222,11111222,99999999' 
TABS,ioos:station:wmo:42046:1,1999-05-01T06:00:00Z,27.8903,-94.0367,2.0,115.2327723,9.617692031,-99999.0,'11133222,11111222,99999999' 
TABS,ioos:station:wmo:42046:1,1999-05-01T06:30:00Z,27.8903,-94.0367,2.0,4.085817685,1.403566885,-99999.0,'11133222,11111222,99999999' 
TABS,ioos:station:wmo:42046:1,1999-05-01T07:00:00Z,27.8903,-94.0367,2.0,59.6358,11.47388339,-99999.0,'11111222,11111222,99999999' 
TABS,ioos:station:wmo:42046:1,1999-05-01T07:30:00Z,27.8903,-94.0367,2.0,63.67676329,10.59905656,-99999.0,'11111222,11111222,99999999' 
TABS,ioos:station:wmo:42046:1,1999-05-01T08:00:00Z,27.8903,-94.0367,2.0,295.6413668,5.54616985,-99999.0,'11133222,11111222,99999999' 
TABS,ioos:station:wmo:42046:1,1999-05-01T08:30:00Z,27.8903,-94.0367,2.0,325.9230949,4.10487515,-99999.0,'11133222,11111222,99999999' 
TABS,ioos:station:wmo:42046:1,1999-05-01T09:00:00Z,27.8903,-94.0367,2.0,282.5291993,4.609772229,-99999.0,'11133222,11111222,99999999' 
TABS,ioos:station:wmo:42046:1,1999-05-01T09:30:00Z,27.8903,-94.0367,2.0,76.50429828,7.712976079,-99999.0,'11133222,11111222,99999999' 
TABS,ioos:station:wmo:42046:1,1999-05-01T10:00:00Z,27.8903,-94.0367,2.0,261.2534373,6.576473219,-99999.0,'11133222,11111222,99999999' 
TABS,ioos:station:wmo:42046:1,1999-05-01T10:30:00Z,27.8903,-94.0367,2.0,265.02985,11.54339638,-99999.0,'11111222,11111222,99999999' 
TABS,ioos:station:wmo:42046:1,1999-05-01T11:00:00Z,27.8903,-94.0367,2.0,132.7092901,1.769180601,-99999.0,'11133222,11111222,99999999' 
TABS,ioos:station:wmo:42046:1,1999-05-01T11:30:00Z,27.8903,-94.0367,2.0,339.3820705,10.79120012,-99999.0,'11111222,11111222,99999999' 
TABS,ioos:station:wmo:42046:1,1999-05-01T12:00:00Z,27.8903,-94.0367,2.0,343.3552112,10.12422837,-99999.0,'11111222,11111222,99999999' 
TABS,ioos:station:wmo:42046:1,1999-05-01T12:30:00Z,27.8903,-94.0367,2.0,292.3337571,20.00025,-99999.0,'11111222,11111222,99999999' 
TABS,ioos:station:wmo:42046:1,1999-05-01T13:00:00Z,27.8903,-94.0367,2.0,302.3810229,24.27447219,-99999.0,'11111222,11111222,99999999' 
TABS,ioos:station:wmo:42046:1,1999-05-01T13:30:00Z,27.8903,-94.0367,2.0,347.1959743,13.53661701,-99999.0,'11111222,11111222,99999999' 
TABS,ioos:station:wmo:42046:1,1999-05-01T14:00:00Z,27.8903,-94.0367,2.0,338.9970369,23.99416596,-99999.0,'11111222,11111222,99999999' 
TABS,ioos:station:wmo:42046:1,1999-05-01T14:30:00Z,27.8903,-94.0367,2.0,354.0061315,20.10994779,-99999.0,'11111222,11111222,99999999' 
TABS,ioos:station:wmo:42046:1,1999-05-01T15:00:00Z,27.8903,-94.0367,2.0,8.615838496,23.36364698,-99999.0,'11111222,11111222,99999999' 
TABS,ioos:station:wmo:42046:1,1999-05-01T15:30:00Z,27.8903,-94.0367,2.0,12.27596755,22.1054292,-99999.0,'11111222,11111222,99999999' 
TABS,ioos:station:wmo:42046:1,1999-05-01T16:00:00Z,27.8903,-94.0367,2.0,359.3797043,27.7016245,-99999.0,'11111222,11144222,99999999' 
TABS,ioos:station:wmo:42046:1,1999-05-01T16:30:00Z,27.8903,-94.0367,2.0,346.2394575,25.22399651,-99999.0,'11111222,11111222,99999999' 
TABS,ioos:station:wmo:42046:1,1999-05-01T17:00:00Z,27.8903,-94.0367,2.0,354.6774722,16.1697248,-99999.0,'11111222,11111222,99999999' 
TABS,ioos:station:wmo:42046:1,1999-05-01T17:30:00Z,27.8903,-94.0367,2.0,31.46018709,17.81937148,-99999.0,'11111222,11111222,99999999' 
TABS,ioos:station:wmo:42046:1,1999-05-01T18:00:00Z,27.8903,-94.0367,2.0,22.95132721,21.28497122,-99999.0,'11111222,11111222,99999999' 
TABS,ioos:station:wmo:42046:1,1999-05-01T18:30:00Z,27.8903,-94.0367,2.0,29.44557033,21.35907301,-99999.0,'11111222,11111222,99999999' 
TABS,ioos:station:wmo:42046:1,1999-05-01T19:00:00Z,27.8903,-94.0367,2.0,56.79057856,29.76071236,-99999.0,'11111222,11111222,99999999' 
TABS,ioos:station:wmo:42046:1,1999-05-01T19:30:00Z,27.8903,-94.0367,2.0,51.54047576,22.34860175,-99999.0,'11111222,11111222,99999999' 
TABS,ioos:station:wmo:42046:1,1999-05-01T20:00:00Z,27.8903,-94.0367,2.0,41.73582914,18.62713075,-99999.0,'11111222,11111222,99999999' 
TABS,ioos:station:wmo:42046:1,1999-05-01T20:30:00Z,27.8903,-94.0367,2.0,35.13432136,13.20605922,-99999.0,'11111222,11111222,99999999' 
TABS,ioos:station:wmo:42046:1,1999-05-01T21:00:00Z,27.8903,-94.0367,2.0,61.79843773,23.48829496,-99999.0,'11111222,11111222,99999999' 
TABS,ioos:station:wmo:42046:1,1999-05-01T21:30:00Z,27.8903,-94.0367,2.0,37.90760449,15.46253537,-99999.0,'11111222,11111222,99999999' 
TABS,ioos:station:wmo:42046:1,1999-05-01T22:00:00Z,27.8903,-94.0367,2.0,74.33187622,25.54936398,-99999.0,'11111222,11111222,99999999' 
TABS,ioos:station:wmo:42046:1,1999-05-01T22:30:00Z,27.8903,-94.0367,2.0,71.05678124,24.95135267,-99999.0,'11111222,11111222,99999999' 
TABS,ioos:station:wmo:42046:1,1999-05-01T23:00:00Z,27.8903,-94.0367,2.0,73.41270023,19.61631974,-99999.0,'11111222,11111222,99999999' 
TABS,ioos:station:wmo:42046:1,1999-05-01T23:30:00Z,27.8903,-94.0367,2.0,77.53509631,29.18801124,-99999.0,'11111222,11111222,99999999' 
TABS,ioos:station:wmo:42046:1,1999-05-02T00:00:00Z,27.8903,-94.0367,2.0,77.47122159,19.36104336,-99999.0,'11111222,11111222,99999999' 
TABS,ioos:station:wmo:42046:1,1999-05-02T00:30:00Z,27.8903,-94.0367,2.0,83.99100809,28.65745976,-99999.0,'11111222,11111222,99999999' 
TABS,ioos:station:wmo:42046:1,1999-05-02T01:00:00Z,27.8903,-94.0367,2.0,97.95306337,27.46415846,-99999.0,'11111222,11111222,99999999' 
TABS,ioos:station:wmo:42046:1,1999-05-02T01:30:00Z,27.8903,-94.0367,2.0,91.88067384,33.51805484,-99999.0,'11111222,11111222,99999999' 
TABS,ioos:station:wmo:42046:1,1999-05-02T02:00:00Z,27.8903,-94.0367,2.0,107.8904017,29.94812181,-99999.0,'11111222,11111222,99999999' 
TABS,ioos:station:wmo:42046:1,1999-05-02T02:30:00Z,27.8903,-94.0367,2.0,98.30214182,23.54676199,-99999.0,'11111222,11111222,99999999' 
TABS,ioos:station:wmo:42046:1,1999-05-02T03:00:00Z,27.8903,-94.0367,2.0,118.1415354,14.62942241,-99999.0,'11111222,11111222,99999999' 
TABS,ioos:station:wmo:42046:1,1999-05-02T03:30:00Z,27.8903,-94.0367,2.0,111.2504558,23.1758495,-99999.0,'11111222,11111222,99999999' 
TABS,ioos:station:wmo:42046:1,1999-05-02T04:00:00Z,27.8903,-94.0367,2.0,119.6147424,21.85497655,-99999.0,'11111222,11111222,99999999' 
TABS,ioos:station:wmo:42046:1,1999-05-02T04:30:00Z,27.8903,-94.0367,2.0,114.9956379,16.3294213,-99999.0,'11111222,11111222,99999999' 
TABS,ioos:station:wmo:42046:1,1999-05-02T05:00:00Z,27.8903,-94.0367,2.0,115.3374131,31.31213822,-99999.0,'11111222,11111222,99999999' 
TABS,ioos:station:wmo:42046:1,1999-05-02T05:30:00Z,27.8903,-94.0367,2.0,146.5090892,15.94772711,-99999.0,'11111222,11111222,99999999' 
TABS,ioos:station:wmo:42046:1,1999-05-02T06:00:00Z,27.8903,-94.0367,2.0,143.1299781,10.5,-99999.0,'11111222,11111222,99999999' 
TABS,ioos:station:wmo:42046:1,1999-05-02T06:30:00Z,27.8903,-94.0367,2.0,154.3588437,8.319254774,-99999.0,'11133222,11111222,99999999' 
TABS,ioos:station:wmo:42046:1,1999-05-02T07:00:00Z,27.8903,-94.0367,2.0,127.0423882,13.28006024,-99999.0,'11111222,11111222,99999999' 
TABS,ioos:station:wmo:42046:1,1999-05-02T07:30:00Z,27.8903,-94.0367,2.0,115.4632855,16.28158469,-99999.0,'11111222,11111222,99999999' 
TABS,ioos:station:wmo:42046:1,1999-05-02T08:00:00Z,27.8903,-94.0367,2.0,138.0126752,13.45362405,-99999.0,'11111222,11111222,99999999' 
TABS,ioos:station:wmo:42046:1,1999-05-02T08:30:00Z,27.8903,-94.0367,2.0,179.9997895,8.2,-99999.0,'11133222,11111222,99999999' 
TABS,ioos:station:wmo:42046:1,1999-05-02T09:00:00Z,27.8903,-94.0367,2.0,236.5918326,5.630275304,-99999.0,'11133222,11111222,99999999' 
TABS,ioos:station:wmo:42046:1,1999-05-02T09:30:00Z,27.8903,-94.0367,2.0,342.6462264,1.676305461,-99999.0,'11133222,11111222,99999999' 
TABS,ioos:station:wmo:42046:1,1999-05-02T10:00:00Z,27.8903,-94.0367,2.0,196.8865412,5.852349955,-99999.0,'11133222,11111222,99999999' 
TABS,ioos:station:wmo:42046:1,1999-05-02T10:30:00Z,27.8903,-94.0367,2.0,73.44296734,3.860051813,-99999.0,'11133222,11111222,99999999' 
TABS,ioos:station:wmo:42046:1,1999-05-02T11:00:00Z,27.8903,-94.0367,2.0,64.79893529,9.394147114,-99999.0,'11133222,11111222,99999999' 
TABS,ioos:station:wmo:42046:1,1999-05-02T11:30:00Z,27.8903,-94.0367,2.0,65.8545145,12.71219887,-99999.0,'11111222,11111222,99999999' 
TABS,ioos:station:wmo:42046:1,1999-05-02T12:00:00Z,27.8903,-94.0367,2.0,32.39152792,11.01362792,-99999.0,'11111222,11111222,99999999' 
TABS,ioos:station:wmo:42046:1,1999-05-02T12:30:00Z,27.8903,-94.0367,2.0,357.4925146,13.71313239,-99999.0,'11111222,11111222,99999999' 
TABS,ioos:station:wmo:42046:1,1999-05-02T13:00:00Z,27.8903,-94.0367,2.0,0.000210459,15.6,-99999.0,'11111222,11111222,99999999' 
TABS,ioos:station:wmo:42046:1,1999-05-02T13:30:00Z,27.8903,-94.0367,2.0,29.6548639,15.76483428,-99999.0,'11111222,11111222,99999999' 
TABS,ioos:station:wmo:42046:1,1999-05-02T14:00:00Z,27.8903,-94.0367,2.0,43.31091089,26.3865496,-99999.0,'11111222,11111222,99999999' 
TABS,ioos:station:wmo:42046:1,1999-05-02T14:30:00Z,27.8903,-94.0367,2.0,18.08892313,20.93466026,-99999.0,'11111222,11111222,99999999' 
TABS,ioos:station:wmo:42046:1,1999-05-02T15:00:00Z,27.8903,-94.0367,2.0,35.05583422,22.11108319,-99999.0,'11111222,11111222,99999999' 
TABS,ioos:station:wmo:42046:1,1999-05-02T15:30:00Z,27.8903,-94.0367,2.0,25.10956961,29.92824753,-99999.0,'11111222,11111222,99999999' 
TABS,ioos:station:wmo:42046:1,1999-05-02T16:00:00Z,27.8903,-94.0367,2.0,43.50836828,27.16210596,-99999.0,'11111222,11111222,99999999' 
TABS,ioos:station:wmo:42046:1,1999-05-02T16:30:00Z,27.8903,-94.0367,2.0,45.16241541,24.96096953,-99999.0,'11111222,11111222,99999999' 
TABS,ioos:station:wmo:42046:1,1999-05-02T17:00:00Z,27.8903,-94.0367,2.0,39.71241115,31.45870309,-99999.0,'11111222,11111222,99999999' 
TABS,ioos:station:wmo:42046:1,1999-05-02T17:30:00Z,27.8903,-94.0367,2.0,55.59576594,31.14883625,-99999.0,'11111222,11111222,99999999' 
TABS,ioos:station:wmo:42046:1,1999-05-02T18:00:00Z,27.8903,-94.0367,2.0,45.86487949,37.48092848,-99999.0,'11111222,11111222,99999999' 
TABS,ioos:station:wmo:42046:1,1999-05-02T18:30:00Z,27.8903,-94.0367,2.0,46.82253366,31.12844358,-99999.0,'11111222,11111222,99999999' 
TABS,ioos:station:wmo:42046:1,1999-05-02T19:00:00Z,27.8903,-94.0367,2.0,50.00401348,30.8058436,-99999.0,'11111222,11111222,99999999' 
TABS,ioos:station:wmo:42046:1,1999-05-02T19:30:00Z,27.8903,-94.0367,2.0,56.96107011,31.73089977,-99999.0,'11111222,11111222,99999999' 
TABS,ioos:station:wmo:42046:1,1999-05-02T20:00:00Z,27.8903,-94.0367,2.0,65.94843265,32.63326524,-99999.0,'11111222,11111222,99999999' 
TABS,ioos:station:wmo:42046:1,1999-05-02T20:30:00Z,27.8903,-94.0367,2.0,69.37348517,38.03840165,-99999.0,'11111222,11111222,99999999' 
TABS,ioos:station:wmo:42046:1,1999-05-02T21:00:00Z,27.8903,-94.0367,2.0,65.42463027,36.06715958,-99999.0,'11111222,11111222,99999999' 
TABS,ioos:station:wmo:42046:1,1999-05-02T21:30:00Z,27.8903,-94.0367,2.0,64.22162942,39.09015221,-99999.0,'11111222,11111222,99999999' 
TABS,ioos:station:wmo:42046:1,1999-05-02T22:00:00Z,27.8903,-94.0367,2.0,74.68721745,43.54595274,-99999.0,'11111222,11111222,99999999' 
TABS,ioos:station:wmo:42046:1,1999-05-02T22:30:00Z,27.8903,-94.0367,2.0,71.50394634,29.63055855,-99999.0,'11111222,11111222,99999999' 
TABS,ioos:station:wmo:42046:1,1999-05-02T23:00:00Z,27.8903,-94.0367,2.0,80.60757262,26.96145397,-99999.0,'11111222,11111222,99999999' 
TABS,ioos:station:wmo:42046:1,1999-05-02T23:30:00Z,27.8903,-94.0367,2.0,92.71870068,35.8403404,-99999.0,'11111222,11111222,99999999' 
TABS,ioos:station:wmo:42046:1,1999-05-03T00:00:00Z,27.8903,-94.0367,2.0,89.28607252,32.10249212,-99999.0,'11111222,11111222,99999999' 
TABS,ioos:station:wmo:42046:1,1999-05-03T00:30:00Z,27.8903,-94.0367,2.0,99.32660905,27.76706682,-99999.0,'11111222,11111222,99999999' 
TABS,ioos:station:wmo:42046:1,1999-05-03T01:00:00Z,27.8903,-94.0367,2.0,108.9935671,29.18921034,-99999.0,'11111222,11111222,99999999' 
TABS,ioos:station:wmo:42046:1,1999-05-03T01:30:00Z,27.8903,-94.0367,2.0,107.3665793,27.13705953,-99999.0,'11111222,11111222,99999999' 
TABS,ioos:station:wmo:42046:1,1999-05-03T02:00:00Z,27.8903,-94.0367,2.0,111.0613052,17.25253605,-99999.0,'11111222,11111222,99999999' 
TABS,ioos:station:wmo:42046:1,1999-05-03T02:30:00Z,27.8903,-94.0367,2.0,131.4742878,14.94824404,-99999.0,'11111222,11111222,99999999' 
TABS,ioos:station:wmo:42046:1,1999-05-03T03:00:00Z,27.8903,-94.0367,2.0,117.6588064,18.74166481,-99999.0,'11111222,11111222,99999999' 
TABS,ioos:station:wmo:42046:1,1999-05-03T03:30:00Z,27.8903,-94.0367,2.0,105.9453586,5.096076922,-99999.0,'11133222,11111222,99999999' 
TABS,ioos:station:wmo:42046:1,1999-05-03T04:00:00Z,27.8903,-94.0367,2.0,134.9998948,9.75807358,-99999.0,'11133222,11111222,99999999' 
TABS,ioos:station:wmo:42046:1,1999-05-03T04:30:00Z,27.8903,-94.0367,2.0,188.8201485,11.73882447,-99999.0,'11111222,11111222,99999999' 
TABS,ioos:station:wmo:42046:1,1999-05-03T05:00:00Z,27.8903,-94.0367,2.0,211.7591954,2.469817807,-99999.0,'11133222,11111222,99999999' 
TABS,ioos:station:wmo:42046:1,1999-05-03T05:30:00Z,27.8903,-94.0367,2.0,153.4348005,4.024922359,-99999.0,'11133222,11111222,99999999' 
TABS,ioos:station:wmo:42046:1,1999-05-03T06:00:00Z,27.8903,-94.0367,2.0,96.11548927,2.816025568,-99999.0,'11133222,11111222,99999999' 
TABS,ioos:station:wmo:42046:1,1999-05-03T06:30:00Z,27.8903,-94.0367,2.0,179.9997895,2.9,-99999.0,'11133222,11111222,99999999' 
TABS,ioos:station:wmo:42046:1,1999-05-03T07:00:00Z,27.8903,-94.0367,2.0,336.1760056,8.417244205,-99999.0,'11133222,11111222,99999999' 
TABS,ioos:station:wmo:42046:1,1999-05-03T07:30:00Z,27.8903,-94.0367,2.0,64.27753323,15.20690633,-99999.0,'11111222,11111222,99999999' 
TABS,ioos:station:wmo:42046:1,1999-05-03T08:00:00Z,27.8903,-94.0367,2.0,29.26813723,10.43168251,-99999.0,'11111222,11111222,99999999' 
TABS,ioos:station:wmo:42046:1,1999-05-03T08:30:00Z,27.8903,-94.0367,2.0,37.96218092,11.54209686,-99999.0,'11111222,11111222,99999999' 
TABS,ioos:station:wmo:42046:1,1999-05-03T09:00:00Z,27.8903,-94.0367,2.0,22.87382216,13.89244399,-99999.0,'11111222,11111222,99999999' 
TABS,ioos:station:wmo:42046:1,1999-05-03T09:30:00Z,27.8903,-94.0367,2.0,16.00421352,13.42013413,-99999.0,'11111222,11111222,99999999' 
TABS,ioos:station:wmo:42046:1,1999-05-03T10:00:00Z,27.8903,-94.0367,2.0,62.3333074,11.62970335,-99999.0,'11111222,11111222,99999999' 
TABS,ioos:station:wmo:42046:1,1999-05-03T10:30:00Z,27.8903,-94.0367,2.0,14.56594064,13.12173769,-99999.0,'11111222,11111222,99999999' 
TABS,ioos:station:wmo:42046:1,1999-05-03T11:00:00Z,27.8903,-94.0367,2.0,39.13051851,22.81775624,-99999.0,'11111222,11111222,99999999' 
TABS,ioos:station:wmo:42046:1,1999-05-03T11:30:00Z,27.8903,-94.0367,2.0,51.60492528,27.0495841,-99999.0,'11111222,11111222,99999999' 
TABS,ioos:station:wmo:42046:1,1999-05-03T12:00:00Z,27.8903,-94.0367,2.0,49.98642734,21.15183207,-99999.0,'11111222,11111222,99999999' 
TABS,ioos:station:wmo:42046:1,1999-05-03T12:30:00Z,27.8903,-94.0367,2.0,71.01682733,26.43785165,-99999.0,'11111222,11111222,99999999' 
TABS,ioos:station:wmo:42046:1,1999-05-03T13:00:00Z,27.8903,-94.0367,2.0,72.69951326,31.94526569,-99999.0,'11111222,11111222,99999999' 
TABS,ioos:station:wmo:42046:1,1999-05-03T13:30:00Z,27.8903,-94.0367,2.0,68.96253817,32.03529304,-99999.0,'11111222,11111222,99999999' 
TABS,ioos:station:wmo:42046:1,1999-05-03T14:00:00Z,27.8903,-94.0367,2.0,67.23674991,27.65393281,-99999.0,'11111222,11111222,99999999' 
TABS,ioos:station:wmo:42046:1,1999-05-03T14:30:00Z,27.8903,-94.0367,2.0,67.6806118,20.53874388,-99999.0,'11111222,11111222,99999999' 
TABS,ioos:station:wmo:42046:1,1999-05-03T15:00:00Z,27.8903,-94.0367,2.0,75.21454289,27.82121493,-99999.0,'11111222,11111222,99999999' 
TABS,ioos:station:wmo:42046:1,1999-05-03T15:30:00Z,27.8903,-94.0367,2.0,62.66983913,26.79048338,-99999.0,'11111222,11111222,99999999' 
TABS,ioos:station:wmo:42046:1,1999-05-03T16:00:00Z,27.8903,-94.0367,2.0,70.43626213,25.68267899,-99999.0,'11111222,11111222,99999999' 
TABS,ioos:station:wmo:42046:1,1999-05-03T16:30:00Z,27.8903,-94.0367,2.0,79.06235814,33.2031625,-99999.0,'11111222,11111222,99999999' 
TABS,ioos:station:wmo:42046:1,1999-05-03T17:00:00Z,27.8903,-94.0367,2.0,56.43038008,26.40378761,-99999.0,'11111222,11111222,99999999' 
TABS,ioos:station:wmo:42046:1,1999-05-03T17:30:00Z,27.8903,-94.0367,2.0,65.74872803,22.15513484,-99999.0,'11111222,11111222,99999999' 
TABS,ioos:station:wmo:42046:1,1999-05-03T18:00:00Z,27.8903,-94.0367,2.0,55.8465581,27.43082208,-99999.0,'11111222,11111222,99999999' 
TABS,ioos:station:wmo:42046:1,1999-05-03T18:30:00Z,27.8903,-94.0367,2.0,66.89593297,31.85498391,-99999.0,'11111222,11111222,99999999' 
TABS,ioos:station:wmo:42046:1,1999-05-03T19:00:00Z,27.8903,-94.0367,2.0,62.3333074,23.2594067,-99999.0,'11111222,11111222,99999999' 
TABS,ioos:station:wmo:42046:1,1999-05-03T19:30:00Z,27.8903,-94.0367,2.0,57.81744349,27.41167634,-99999.0,'11111222,11111222,99999999' 
TABS,ioos:station:wmo:42046:1,1999-05-03T20:00:00Z,27.8903,-94.0367,2.0,65.80451347,32.45073189,-99999.0,'11111222,11111222,99999999' 
TABS,ioos:station:wmo:42046:1,1999-05-03T20:30:00Z,27.8903,-94.0367,2.0,78.60632847,26.82871596,-99999.0,'11111222,11111222,99999999' 
TABS,ioos:station:wmo:42046:1,1999-05-03T21:00:00Z,27.8903,-94.0367,2.0,80.57124538,28.07935184,-99999.0,'11111222,11111222,99999999' 
TABS,ioos:station:wmo:42046:1,1999-05-03T21:30:00Z,27.8903,-94.0367,2.0,70.99215693,31.6243577,-99999.0,'11111222,11111222,99999999' 
TABS,ioos:station:wmo:42046:1,1999-05-03T22:00:00Z,27.8903,-94.0367,2.0,87.61406155,33.62915402,-99999.0,'11111222,11111222,99999999' 
TABS,ioos:station:wmo:42046:1,1999-05-03T22:30:00Z,27.8903,-94.0367,2.0,92.67854499,34.23740644,-99999.0,'11111222,11111222,99999999' 
TABS,ioos:station:wmo:42046:1,1999-05-03T23:00:00Z,27.8903,-94.0367,2.0,102.118732,33.34306525,-99999.0,'11111222,11111222,99999999' 
TABS,ioos:station:wmo:42046:1,1999-05-03T23:30:00Z,27.8903,-94.0367,2.0,87.26556949,33.53818719,-99999.0,'11111222,11111222,99999999' 
TABS,ioos:station:wmo:42046:1,1999-05-04T00:00:00Z,27.8903,-94.0367,2.0,112.9940924,29.43908966,-99999.0,'11111222,11111222,99999999' 
TABS,ioos:station:wmo:42046:1,1999-05-04T00:30:00Z,27.8903,-94.0367,2.0,102.1665053,22.30089684,-99999.0,'11111222,11111222,99999999' 
TABS,ioos:station:wmo:42046:1,1999-05-04T01:00:00Z,27.8903,-94.0367,2.0,110.7372545,36.99689176,-99999.0,'11111222,11111222,99999999' 
TABS,ioos:station:wmo:42046:1,1999-05-04T01:30:00Z,27.8903,-94.0367,2.0,118.7397281,28.28427125,-99999.0,'11111222,11111222,99999999' 
TABS,ioos:station:wmo:42046:1,1999-05-04T02:00:00Z,27.8903,-94.0367,2.0,122.1956586,25.52488981,-99999.0,'11111222,11111222,99999999' 
TABS,ioos:station:wmo:42046:1,1999-05-04T02:30:00Z,27.8903,-94.0367,2.0,112.7823525,16.26929624,-99999.0,'11111222,11111222,99999999' 
TABS,ioos:station:wmo:42046:1,1999-05-04T03:00:00Z,27.8903,-94.0367,2.0,108.1037207,21.88332699,-99999.0,'11111222,11111222,99999999' 
TABS,ioos:station:wmo:42046:1,1999-05-04T03:30:00Z,27.8903,-94.0367,2.0,102.3624635,22.41985727,-99999.0,'11111222,11111222,99999999' 
TABS,ioos:station:wmo:42046:1,1999-05-04T04:00:00Z,27.8903,-94.0367,2.0,69.59983831,12.90968629,-99999.0,'11111222,11111222,99999999' 
TABS,ioos:station:wmo:42046:1,1999-05-04T04:30:00Z,27.8903,-94.0367,2.0,86.74498622,21.13409567,-99999.0,'11111222,11111222,99999999' 
TABS,ioos:station:wmo:42046:1,1999-05-04T05:00:00Z,27.8903,-94.0367,2.0,76.93607642,18.58090418,-99999.0,'11111222,11111222,99999999' 
TABS,ioos:station:wmo:42046:1,1999-05-04T05:30:00Z,27.8903,-94.0367,2.0,66.74433948,13.17004176,-99999.0,'11111222,11111222,99999999' 
TABS,ioos:station:wmo:42046:1,1999-05-04T06:00:00Z,27.8903,-94.0367,2.0,39.49970662,19.18019812,-99999.0,'11111222,11111222,99999999' 
TABS,ioos:station:wmo:42046:1,1999-05-04T06:30:00Z,27.8903,-94.0367,2.0,45.25030296,32.38579936,-99999.0,'11111222,11111222,99999999' 
TABS,ioos:station:wmo:42046:1,1999-05-04T07:00:00Z,27.8903,-94.0367,2.0,21.35300012,26.09099462,-99999.0,'11111222,11111222,99999999' 
TABS,ioos:station:wmo:42046:1,1999-05-04T07:30:00Z,27.8903,-94.0367,2.0,32.88953578,17.86309044,-99999.0,'11111222,11111222,99999999' 
TABS,ioos:station:wmo:42046:1,1999-05-04T08:00:00Z,27.8903,-94.0367,2.0,41.8912557,22.1650626,-99999.0,'11111222,11111222,99999999' 
TABS,ioos:station:wmo:42046:1,1999-05-04T08:30:00Z,27.8903,-94.0367,2.0,34.33309366,42.02118513,-99999.0,'11111222,11111222,99999999' 
TABS,ioos:station:wmo:42046:1,1999-05-04T09:00:00Z,27.8903,-94.0367,2.0,46.16527974,41.7279283,-99999.0,'11111222,11111222,99999999' 
TABS,ioos:station:wmo:42046:1,1999-05-04T09:30:00Z,27.8903,-94.0367,2.0,67.16639922,57.72347876,-99999.0,'11111222,11111222,99999999' 
TABS,ioos:station:wmo:42046:1,1999-05-04T10:00:00Z,27.8903,-94.0367,2.0,53.90377344,48.88445561,-99999.0,'11111222,11111222,99999999' 
TABS,ioos:station:wmo:42046:1,1999-05-04T10:30:00Z,27.8903,-94.0367,2.0,51.68699892,51.61637337,-99999.0,'11111222,11111222,99999999' 
TABS,ioos:station:wmo:42046:1,1999-05-04T11:00:00Z,27.8903,-94.0367,2.0,69.61829448,57.71325671,-99999.0,'11111222,11111222,99999999' 
TABS,ioos:station:wmo:42046:1,1999-05-04T11:30:00Z,27.8903,-94.0367,2.0,73.76447812,65.09600602,-99999.0,'11111222,11111222,99999999' 
TABS,ioos:station:wmo:42046:1,1999-05-04T12:00:00Z,27.8903,-94.0367,2.0,72.30999287,55.94541983,-99999.0,'11111222,11111222,99999999' 
TABS,ioos:station:wmo:42046:1,1999-05-04T12:30:00Z,27.8903,-94.0367,2.0,62.02381606,49.02948093,-99999.0,'11111222,11111222,99999999' 
TABS,ioos:station:wmo:42046:1,1999-05-04T13:00:00Z,27.8903,-94.0367,2.0,58.3611182,59.6685009,-99999.0,'11111222,11111222,99999999' 
TABS,ioos:station:wmo:42046:1,1999-05-04T13:30:00Z,27.8903,-94.0367,2.0,80.29093689,61.07479022,-99999.0,'11111222,11111222,99999999' 
TABS,ioos:station:wmo:42046:1,1999-05-04T14:00:00Z,27.8903,-94.0367,2.0,62.54906642,52.06188625,-99999.0,'11111222,11111222,99999999' 
TABS,ioos:station:wmo:42046:1,1999-05-04T14:30:00Z,27.8903,-94.0367,2.0,70.41502251,50.41686226,-99999.0,'11111222,11111222,99999999' 
TABS,ioos:station:wmo:42046:1,1999-05-04T15:00:00Z,27.8903,-94.0367,2.0,77.9613815,57.05479822,-99999.0,'11111222,11111222,99999999' 
TABS,ioos:station:wmo:42046:1,1999-05-04T15:30:00Z,27.8903,-94.0367,2.0,60.3842,49.57680909,-99999.0,'11111222,11111222,99999999' 
TABS,ioos:station:wmo:42046:1,1999-05-04T16:00:00Z,27.8903,-94.0367,2.0,74.09483005,58.74912765,-99999.0,'11111222,11111222,99999999' 